Volver al catálogo

OPS 0856 DEB

LostPO
NORAD 27724·DEBRIS·🇺🇸 United States

Lanzado Aug 19, 1966 desde Vandenberg Space Force Base

Loading…

Próximos Pases (próximas 24 horas)

TLE

ObsoletoSource: Space-Track

Época: May 3, 2025, 06:03 UTC

1 27724U 66077AC  25123.25242778 -.00004304  00000-0 -12796+1 0  9996
2 27724  89.6590 216.2132 0800256  30.8413 356.9154  8.77699079115022

Sigue OPS 0856 DEB en tiempo real con AllMySat

Download on the App Store